Hauptseite
METAR-TAF:

METAR-TAF

Flughäfen :

Fliegerhorst Faßberg

Faßberg, Deutschland

Breite: 52-55N, Länge: 010-11E, Höhe: 75 m

Beobachtung

Neuester Wetterbericht von vor 49 Minuten, um 09:35 UTC
Wind 9 kt aus Ost
Temperatur 8°C
Luftfeuchtigkeit 93%
Luftdruck 1004 hPa
Sichtweite: 8000 m
Leicht bewölkt in der Höhe von 500 ft

METAR: ETHS 030935Z 08009KT 8000 FEW005 08/07 Q1004 BLU+

Zeit: 11:24 (10:24 UTC)


TAF: fehlend

Wetterbeobachtungen und Prognosen von mehr als 4000 Flughäfen (METAR und TAF Bericht).

Die verfügbaren Stationen werden durch gelbe und rote Markierungen auf der Karte dargestellt.

Führen Sie die Maus auf sie, um den Namen der Station zu sehen.

Darauf klicken, um die Beobachtung von Wetterbeobachtungen und Prognosen zu sehen.

Um die Karte zu ändern : klicken Sie auf den grünen Tasten mit einem schwarzen Kreuz Zum Vergrößern, auf den grünen Button mit einem Gedankenstrich zu verkleinern, oder auf die grünen Pfeile für benachbarte Karten.


METAR-TAF: